Location: Capelle
(50.3413°N, 1.9974°E)
Time: 15:13:05
(UTC+00:00)

Cosmos 1741 Rocket - Visible Passes

Search period start: 11 April 2026 00:00
Search period end: 21 April 2026 00:00
Orbit: 757 x 778 km, 74.0° (Epoch: 10 April)

Date Brightness Start Highest point End Pass type
(mag) Time Alt. Az. Time Alt. Az. Time Alt. Az.
11 Apr 5.3 00:51:26 10° NNW 00:56:20 37° NE 00:57:59 30° E visible
11 Apr 4.5 02:33:32 10° NW 02:38:11 40° W 02:38:11 40° W visible
12 Apr 5.9 00:14:23 10° N 00:18:47 26° NE 00:20:50 20° E visible
12 Apr 4.0 01:56:03 10° NNW 02:01:03 63° W 02:01:03 63° W visible
12 Apr 6.3 23:37:28 10° N 23:41:07 18° NE 23:43:46 13° ENE visible
13 Apr 4.0 01:18:42 10° NNW 01:23:59 83° NE 01:23:59 83° NE visible
13 Apr 5.8 03:02:06 10° NW 03:04:12 16° WNW 03:04:12 16° WNW visible
13 Apr 6.6 23:00:49 10° N 23:03:20 13° NE 23:05:50 10° ENE visible
14 Apr 4.5 00:41:28 10° NNW 00:46:40 54° ENE 00:47:00 53° ENE visible
14 Apr 5.3 02:24:03 10° NW 02:27:13 24° WNW 02:27:13 24° WNW visible
15 Apr 5.2 00:04:19 10° NNW 00:09:12 36° NE 00:10:03 34° ENE visible
15 Apr 4.8 01:46:23 10° NW 01:50:16 37° WNW 01:50:16 37° WNW visible
15 Apr 5.8 23:27:17 10° N 23:31:38 25° NE 23:33:10 22° ENE visible
16 Apr 4.3 01:08:54 10° NNW 01:13:23 58° WNW 01:13:23 58° WNW visible
16 Apr 6.2 22:50:23 10° N 22:53:57 18° NE 22:56:18 14° ENE visible
17 Apr 4.1 00:31:34 10° NNW 00:36:31 74° NNE 00:36:31 74° NNE visible
17 Apr 5.9 02:14:53 10° NW 02:16:45 16° WNW 02:16:45 16° WNW visible
17 Apr 6.5 22:13:46 10° N 22:16:10 13° NE 22:18:33 10° ENE visible
17 Apr 4.5 23:54:20 10° NNW 23:59:32 52° ENE 23:59:42 52° ENE visible
18 Apr 5.4 01:36:53 10° NW 01:39:55 24° WNW 01:39:55 24° WNW visible
18 Apr 5.2 23:17:12 10° N 23:22:04 35° NE 23:22:54 33° ENE visible
19 Apr 4.8 00:59:14 10° NW 01:03:08 38° WNW 01:03:08 38° WNW visible
19 Apr 5.7 22:40:11 10° N 22:44:28 24° NE 22:46:07 21° ENE visible
20 Apr 4.2 00:21:46 10° NNW 00:26:21 61° WNW 00:26:21 61° WNW visible
20 Apr 6.2 22:03:17 10° N 22:06:47 17° NE 22:09:23 13° ENE visible
20 Apr 4.0 23:44:26 10° NNW 23:49:36 76° NE 23:49:36 76° NE visible
